Temp
11 12 12 12 12 13 13 13 13 13 13 13 13 13 13 13 13 13 14 14 14 14 15 15 15 16 16 16 16 16 17 16 15 15 12 10 10 10 10 10 10 10 11 10 9
10 11 11 12 12 12 12 13 13 13 13 13 13 13 13 13 13 14 14 14 14 15 15 15 15 16 15 16 16 16 17 15 14 13 12 11 10 11 10 11 11 11 11 10 9
10 10 11 11 12 12 12 12 13 13 13 13 13 13 13 13 13 13 14 14 14 14 15 15 16 16 15 16 16 16 16 15 14 13 12 12 13 12 10 10 11 11 11 10 10
10 10 10 10 11 11 12 12 12 13 13 13 13 13 13 13 14 14 14 14 14 14 15 15 16 15 16 16 17 16 14 14 13 12 12 12 13 13 11 12 11 11 10 10 10
10 10 10 10 10 11 11 11 12 12 13 13 13 13 14 14 14 14 14 14 14 15 15 15 16 16 16 16 17 15 16 15 14 14 14 14 13 13 13 12 11 11 10 10 9
10 10 10 10 10 10 11 11 11 12 12 13 13 13 14 14 14 14 14 14 15 15 15 15 16 16 16 17 16 16 16 15 14 14 14 12 13 12 13 13 12 11 11 10 10
10 10 10 10 10 10 11 11 11 11 12 12 12 13 14 14 14 14 14 15 15 15 15 15 16 16 16 17 17 17 16 15 14 13 14 13 12 13 14 13 13 12 11 11 10
10 10 10 10 10 10 10 11 11 11 11 12 12 12 13 14 14 14 14 14 15 15 15 15 16 16 16 17 16 16 16 17 15 14 15 14 14 14 14 14 13 13 12 12 11
10 10 10 10 10 10 10 11 11 11 11 11 11 12 12 14 14 14 14 14 15 15 15 15 15 15 16 16 17 17 18 17 15 16 15 15 14 15 14 14 14 13 13 12 12
9 9 9 10 10 10 10 11 11 11 11 11 11 11 13 14 14 14 14 14 14 15 15 15 15 16 16 18 19 18 18 18 17 15 16 15 15 16 15 14 14 14 13 13 13
8 9 9 9 10 10 10 10 10 10 11 11 10 11 12 13 14 14 14 14 14 15 15 15 16 17 17 18 18 18 18 18 17 15 15 16 16 15 16 16 15 14 14 13 13
8 8 9 9 9 9 10 10 10 10 11 11 11 12 12 13 14 14 14 14 13 14 15 15 16 17 17 17 17 18 18 18 17 16 15 16 16 16 16 16 16 15 15 14 14
7 8 8 8 9 9 9 10 10 10 10 11 12 12 12 12 13 13 14 14 14 15 15 16 17 17 16 16 17 18 18 18 18 16 16 16 16 16 15 16 16 16 15 16 15
6 7 7 7 8 8 8 9 9 9 9 11 13 13 12 12 12 12 14 13 14 15 15 16 17 16 16 17 17 19 17 17 17 17 20 17 20 17 16 16 17 16 16 16 16
4 6 6 6 7 7 8 8 8 9 13 13 11 12 13 12 13 13 14 12 14 15 15 16 16 16 16 17 17 18 17 17 17 18 18 17 19 17 17 16 16 17 16 16 16
2 4 5 6 6 6 7 7 7 8 12 12 11 12 12 12 12 13 12 12 14 14 14 16 15 16 17 17 17 17 17 17 17 18 19 20 19 19 18 18 17 16 17 16 16
0 2 4 5 5 5 6 6 6 10 12 12 11 11 12 12 13 12 12 12 13 13 14 15 15 15 16 17 16 17 17 19 19 20 21 18 19 21 20 18 18 17 17 16 16
-2 0 2 4 4 4 5 5 8 11 11 12 12 12 12 13 13 13 13 13 13 15 16 16 16 15 16 16 17 17 18 20 19 21 21 17 20 20 19 19 19 18 17 17 16
-3 -1 1 2 3 3 4 3 8 10 11 11 12 12 13 13 14 13 14 14 14 15 17 16 17 16 16 17 17 17 18 19 20 19 21 20 20 19 19 19 19 19 18 17 17
-4 -3 -1 1 2 2 3 4 8 9 9 11 13 13 13 13 13 13 14 14 15 14 16 16 18 16 16 16 17 18 18 18 19 21 20 21 20 21 20 20 19 20 20 19 18
-5 -4 -2 -1 0 1 1 3 5 7 8 10 12 13 14 13 13 14 15 15 15 14 14 15 17 17 16 16 17 16 18 18 20 20 22 22 21 20 20 19 19 20 20 19 19
-6 -6 -4 -2 -1 -1 1 3 4 6 7 8 10 12 12 13 13 14 15 15 14 14 14 15 16 17 16 17 17 17 18 18 19 19 19 20 22 20 19 19 20 19 19 19 19
-7 -6 -4 -4 -2 -0 0 2 2 4 6 7 9 10 11 12 13 14 14 14 14 14 14 15 15 17 17 16 16 17 18 19 19 19 20 20 21 19 19 19 19 19 19 19 18
-6 -6 -5 -5 -4 -3 0 1 1 3 5 6 8 8 10 11 12 13 14 14 13 14 13 14 16 17 18 17 17 17 18 18 19 19 19 19 19 19 19 19 19 19 19 19 19
-8 -6 -6 -5 -4 -4 -4 -0 2 3 4 5 6 8 10 11 11 12 13 13 12 13 13 14 15 15 17 18 18 18 18 18 18 19 19 20 19 19 19 19 19 19 19 19 19
-8 -8 -7 -6 -6 -5 -3 -2 -0 3 4 5 5 8 9 10 11 12 13 13 12 12 13 13 14 15 15 16 17 18 18 18 18 19 19 19 19 19 18 18 18 18 19 19 18
-8 -7 -8 -6 -5 -4 -2 -2 -1 -2 1 3 5 6 7 8 8 8 11 11 11 12 12 13 14 14 15 16 16 16 17 17 17 18 18 19 19 18 18 18 18 18 18 18 18
Height
3174 3175 3176 3178 3179 3180 3182 3183 3185 3186 3187 3188 3190 3191 3192 3193 3195 3196 3196 3197 3197 3198 3199 3199 3198 3198 3197 3196 3197 3197 3197 3197 3197 3195 3194 3191 3192 3189 3189 3188 3189 3189 3189 3191 3192
3171 3172 3173 3174 3175 3176 3178 3180 3181 3183 3184 3185 3188 3189 3191 3192 3194 3195 3196 3196 3197 3198 3199 3200 3200 3199 3199 3199 3199 3200 3199 3200 3199 3197 3195 3193 3193 3190 3192 3190 3190 3190 3190 3192 3193
3168 3168 3169 3170 3170 3172 3173 3175 3177 3179 3180 3182 3184 3186 3189 3191 3193 3193 3193 3195 3196 3199 3200 3200 3201 3201 3201 3200 3201 3202 3202 3201 3200 3198 3196 3194 3193 3192 3194 3193 3191 3192 3192 3193 3195
3166 3165 3165 3166 3166 3167 3169 3170 3171 3174 3176 3178 3179 3182 3185 3188 3194 3190 3191 3194 3195 3198 3199 3200 3201 3203 3203 3202 3201 3204 3201 3201 3199 3198 3197 3197 3195 3195 3195 3195 3194 3194 3195 3196 3197
3163 3163 3163 3163 3163 3163 3164 3165 3167 3168 3171 3173 3175 3177 3180 3184 3187 3188 3189 3192 3195 3198 3200 3201 3202 3202 3203 3202 3202 3204 3202 3202 3201 3200 3199 3199 3198 3197 3196 3196 3195 3196 3197 3198 3199
3158 3159 3159 3159 3159 3160 3160 3161 3163 3164 3166 3168 3170 3172 3175 3179 3181 3184 3187 3189 3193 3197 3199 3201 3202 3202 3202 3201 3203 3203 3204 3204 3203 3202 3201 3202 3201 3201 3200 3199 3197 3197 3199 3200 3201
3154 3154 3155 3155 3156 3156 3157 3158 3159 3159 3161 3163 3166 3167 3169 3174 3177 3180 3184 3187 3191 3195 3198 3199 3201 3202 3202 3202 3202 3205 3205 3206 3206 3205 3204 3206 3206 3204 3203 3203 3201 3200 3201 3202 3203
3149 3149 3150 3151 3152 3152 3153 3154 3155 3156 3157 3159 3161 3163 3164 3168 3172 3176 3181 3185 3189 3193 3196 3198 3200 3202 3202 3203 3203 3207 3208 3207 3207 3207 3207 3206 3208 3205 3205 3205 3205 3204 3204 3204 3205
3142 3144 3145 3146 3147 3148 3149 3150 3151 3152 3154 3155 3158 3159 3162 3164 3168 3172 3177 3182 3186 3190 3193 3196 3199 3202 3202 3204 3206 3206 3204 3207 3209 3208 3208 3209 3210 3207 3206 3207 3208 3208 3207 3207 3207
3136 3137 3138 3140 3142 3143 3144 3146 3147 3148 3149 3151 3153 3158 3157 3159 3162 3168 3173 3178 3183 3187 3192 3195 3198 3201 3202 3203 3200 3203 3204 3207 3208 3210 3209 3211 3212 3209 3208 3208 3209 3209 3210 3210 3210
3128 3130 3131 3133 3135 3138 3141 3143 3145 3145 3144 3147 3149 3151 3152 3155 3159 3164 3170 3175 3180 3185 3189 3192 3197 3197 3199 3200 3200 3203 3205 3206 3208 3209 3210 3211 3212 3210 3210 3209 3210 3210 3211 3211 3212
3120 3122 3124 3126 3129 3132 3135 3136 3139 3141 3139 3140 3142 3145 3147 3151 3155 3159 3165 3172 3176 3181 3187 3190 3191 3195 3197 3199 3202 3203 3204 3206 3207 3208 3209 3209 3210 3211 3210 3211 3211 3211 3211 3211 3213
3112 3114 3117 3118 3121 3125 3128 3131 3133 3135 3134 3134 3136 3138 3143 3147 3150 3154 3160 3167 3172 3178 3181 3185 3189 3193 3195 3197 3200 3201 3203 3204 3207 3206 3206 3206 3205 3208 3209 3211 3211 3211 3212 3212 3213
3103 3106 3109 3111 3117 3118 3121 3126 3129 3132 3133 3130 3127 3129 3135 3142 3144 3149 3155 3165 3169 3173 3178 3183 3186 3188 3192 3195 3199 3199 3201 3204 3205 3206 3201 3202 3198 3203 3206 3208 3210 3211 3212 3213 3214
3091 3097 3101 3104 3107 3111 3117 3120 3125 3130 3128 3121 3118 3120 3128 3134 3142 3141 3150 3158 3164 3168 3175 3177 3179 3184 3188 3192 3196 3199 3199 3202 3204 3203 3203 3202 3200 3199 3203 3206 3207 3210 3212 3212 3214
3080 3085 3091 3095 3100 3104 3109 3115 3121 3129 3116 3113 3111 3113 3120 3129 3136 3140 3145 3155 3163 3167 3169 3176 3176 3182 3185 3190 3193 3196 3199 3201 3202 3201 3199 3195 3198 3195 3201 3202 3205 3208 3211 3212 3213
3069 3073 3080 3086 3092 3097 3102 3109 3118 3109 3107 3107 3107 3109 3115 3121 3130 3132 3138 3144 3149 3157 3162 3168 3170 3175 3179 3185 3189 3192 3197 3196 3196 3195 3189 3194 3198 3192 3198 3200 3202 3204 3207 3209 3211
3059 3063 3069 3077 3081 3089 3096 3102 3098 3091 3098 3099 3103 3107 3112 3117 3124 3129 3134 3138 3145 3150 3156 3161 3166 3168 3171 3178 3184 3187 3190 3187 3190 3183 3183 3193 3193 3195 3196 3197 3198 3200 3203 3207 3209
3050 3052 3059 3065 3072 3079 3086 3085 3079 3086 3093 3098 3100 3103 3107 3112 3118 3123 3126 3130 3137 3143 3149 3154 3159 3163 3168 3174 3179 3182 3184 3186 3184 3184 3179 3185 3191 3193 3193 3194 3194 3195 3197 3201 3204
3042 3044 3050 3053 3061 3069 3072 3068 3079 3085 3086 3094 3094 3097 3100 3104 3110 3115 3120 3125 3132 3138 3145 3150 3155 3158 3164 3170 3174 3176 3182 3185 3184 3179 3180 3181 3185 3186 3190 3191 3190 3189 3192 3197 3201
3037 3039 3038 3044 3052 3056 3052 3062 3071 3078 3080 3087 3090 3093 3095 3099 3104 3108 3112 3120 3126 3133 3141 3146 3149 3154 3159 3158 3164 3171 3172 3177 3177 3178 3175 3176 3180 3184 3187 3190 3189 3188 3191 3195 3199
3032 3037 3034 3037 3044 3045 3050 3059 3068 3073 3076 3079 3081 3089 3092 3095 3099 3104 3108 3115 3119 3127 3131 3140 3145 3146 3150 3156 3161 3165 3168 3173 3173 3177 3176 3174 3175 3180 3185 3186 3188 3189 3191 3194 3198
3029 3029 3030 3032 3038 3042 3048 3054 3058 3065 3070 3075 3079 3083 3088 3091 3096 3100 3105 3112 3115 3120 3123 3134 3136 3141 3146 3152 3153 3155 3161 3166 3169 3171 3170 3175 3176 3178 3182 3185 3186 3187 3189 3192 3195
3028 3030 3030 3029 3031 3034 3043 3046 3051 3058 3065 3070 3074 3077 3082 3086 3090 3094 3100 3107 3111 3116 3121 3128 3132 3133 3133 3141 3148 3152 3155 3160 3163 3164 3167 3169 3174 3176 3179 3183 3184 3185 3187 3189 3192
3026 3029 3026 3029 3033 3034 3036 3042 3046 3051 3057 3063 3067 3072 3078 3084 3087 3091 3096 3101 3105 3112 3116 3122 3125 3130 3133 3134 3138 3144 3148 3153 3155 3160 3161 3166 3169 3173 3176 3180 3183 3183 3185 3186 3188
3025 3027 3027 3027 3027 3030 3034 3038 3042 3048 3054 3058 3063 3071 3076 3081 3085 3087 3091 3096 3099 3104 3110 3116 3120 3126 3130 3134 3135 3138 3142 3146 3150 3154 3158 3162 3165 3168 3173 3176 3177 3179 3181 3183 3185
3022 3022 3023 3025 3026 3029 3032 3035 3039 3037 3041 3047 3059 3066 3071 3077 3078 3078 3081 3086 3090 3097 3103 3110 3115 3120 3123 3130 3135 3134 3135 3140 3146 3149 3152 3156 3162 3166 3168 3170 3172 3174 3176 3178 3180
Wind_Speed
16 20 22 23 23 23 22 21 19 17 15 14 12 11 9 7 5 6 9 10 8 5 1 2 7 11 14 12 10 11 8 11 10 7 5 7 6 6 8 7 5 5 6 10 16
13 15 19 22 24 25 26 26 25 23 21 20 18 16 14 11 8 7 10 11 11 7 2 1 6 9 10 7 6 8 11 9 7 6 8 7 6 8 8 5 3 6 12 12 13
11 13 15 17 20 23 25 26 27 27 27 26 24 22 19 16 12 14 13 12 13 10 5 2 4 7 5 4 4 7 8 6 9 10 10 11 12 12 9 5 5 7 11 11 11
12 13 14 15 16 19 21 23 25 27 27 28 28 28 25 21 13 16 17 15 15 11 7 2 3 4 2 4 4 5 7 6 7 9 10 10 15 15 11 8 8 10 9 10 12
14 13 14 14 15 16 18 20 21 23 24 26 27 27 26 26 24 12 20 20 16 12 10 5 2 2 4 3 5 7 4 5 7 11 10 10 12 14 13 10 9 11 11 13 14
17 16 15 15 15 16 16 17 18 20 21 22 24 26 26 26 24 25 16 22 18 14 13 10 5 2 4 3 4 4 3 4 9 14 14 9 10 11 13 13 12 13 13 12 13
21 19 18 17 16 17 16 16 17 19 19 20 21 24 27 24 22 24 21 23 21 18 17 14 7 4 2 5 6 4 6 6 7 7 10 10 9 9 11 13 12 14 13 12 11
24 22 21 20 19 17 17 16 16 18 18 19 20 22 26 25 25 25 26 22 23 21 20 16 9 5 2 6 8 6 6 6 2 5 9 11 7 7 9 10 11 12 13 12 10
26 25 24 23 21 20 18 17 16 17 18 18 19 20 20 24 26 26 29 24 25 24 22 18 13 7 5 8 8 8 9 4 3 2 3 11 6 6 8 9 10 10 11 11 11
25 26 27 25 24 22 21 18 17 17 18 19 20 17 20 24 29 29 30 28 27 26 24 21 14 11 10 13 15 10 7 5 4 2 1 0 2 6 5 8 11 10 10 10 11
26 25 26 27 25 24 22 20 19 20 20 19 11 20 11 20 27 30 32 30 29 27 23 25 18 20 16 12 3 7 5 3 1 5 3 4 3 3 2 5 6 11 12 10 10
28 27 26 27 26 25 23 24 22 20 19 20 23 22 24 17 26 32 35 33 31 28 23 21 26 19 14 12 8 7 6 3 2 4 5 5 7 8 8 3 4 7 10 10 10
30 29 27 27 26 25 25 24 23 22 23 23 22 26 24 25 25 30 38 33 31 29 30 25 26 20 19 14 12 11 8 3 5 4 8 5 9 14 13 11 9 9 10 10 9
36 31 28 27 26 25 25 24 22 20 13 18 24 30 32 26 26 30 38 30 26 33 29 28 24 25 22 21 17 15 12 8 7 6 5 5 8 11 16 17 14 12 13 13 12
37 34 29 28 26 25 24 23 20 15 6 8 18 25 31 35 19 33 38 29 27 27 31 32 26 27 24 26 21 17 9 9 8 11 9 9 10 11 14 19 21 18 15 15 14
35 36 32 29 27 27 24 22 20 13 16 9 14 25 30 35 22 26 36 29 23 27 28 27 23 25 31 21 20 19 14 9 11 10 12 11 14 16 10 13 17 21 20 18 16
31 34 34 31 29 29 26 26 18 21 15 16 16 22 28 36 32 27 39 38 32 31 29 26 23 27 27 26 18 20 19 15 10 8 5 9 11 7 9 4 8 19 26 25 21
29 32 33 32 32 31 31 33 23 19 26 9 17 19 30 30 37 31 38 42 37 31 30 31 29 26 31 32 26 27 27 19 12 11 8 8 10 12 9 9 7 17 23 28 24
27 31 33 35 33 35 38 37 35 24 31 13 16 23 28 31 32 34 39 45 43 35 26 33 31 29 24 26 28 29 34 27 18 5 7 15 13 11 9 8 10 12 25 29 31
23 27 30 36 35 39 44 45 26 25 17 27 21 23 29 35 30 39 37 40 42 39 32 19 28 23 28 24 26 26 28 22 20 11 13 11 12 10 8 3 7 19 26 30 26
16 18 28 30 34 42 45 42 30 20 23 25 30 18 23 32 36 38 36 23 43 40 33 20 21 24 28 32 32 25 24 29 22 23 13 7 15 14 10 6 3 7 20 25 21
12 8 19 23 31 34 37 33 30 28 22 17 23 31 18 26 34 33 36 35 33 38 42 31 19 22 32 28 29 32 32 28 21 15 20 14 8 8 10 12 9 8 17 22 23
11 13 17 20 18 27 24 30 28 32 25 18 16 18 25 19 24 35 30 29 20 35 39 39 24 24 25 22 28 33 36 34 31 24 23 20 20 9 9 9 13 16 17 23 25
6 2 7 15 16 16 24 27 28 27 28 21 19 16 14 21 22 20 33 28 27 27 31 38 31 34 31 30 29 33 34 33 34 29 27 23 22 12 12 13 12 14 19 21 23
3 4 9 8 11 14 14 13 25 33 30 20 21 18 21 16 18 22 27 28 26 29 32 34 35 30 28 16 35 32 37 37 38 36 32 26 22 23 17 17 14 18 18 20 22
3 3 6 9 8 12 14 14 16 21 27 33 22 28 19 17 15 21 23 27 26 30 29 29 28 30 31 19 20 28 34 36 38 38 36 30 25 19 19 21 22 22 19 21 20
6 7 5 8 6 6 14 16 14 16 26 29 25 22 24 20 11 7 21 26 22 26 31 31 30 27 32 32 27 28 29 27 28 30 29 31 27 20 20 21 23 20 18 23 22
Wind_Direction
232 229 229 229 228 231 233 232 233 233 236 234 229 234 238 227 201 168 190 195 196 190 232 6 13 17 6 27 65 75 74 59 47 46 107 113 98 117 121 133 152 175 168 165 154
242 238 234 235 235 233 233 235 235 235 237 238 238 238 242 244 230 200 208 205 199 193 163 58 19 13 4 11 69 73 64 45 53 63 115 111 111 105 115 132 151 156 148 151 150
248 249 245 240 238 238 238 237 237 237 238 240 241 242 244 244 247 244 215 212 206 194 185 117 25 10 352 59 106 76 67 52 66 88 105 96 97 103 114 115 129 133 144 149 147
252 250 252 251 247 244 241 240 239 238 237 238 241 241 241 241 236 236 215 216 211 198 194 183 44 11 12 77 108 73 66 89 68 80 98 102 95 100 102 139 146 136 144 145 148
257 255 252 253 253 250 247 244 243 240 238 236 237 238 237 236 230 225 216 214 210 201 198 198 167 0 32 98 96 92 61 76 65 75 93 88 95 93 93 96 121 130 142 148 151
258 255 254 254 253 253 251 247 245 245 241 237 234 235 234 232 223 224 213 215 206 196 201 204 185 101 26 177 141 145 125 91 86 73 89 89 88 83 84 80 103 126 138 148 153
262 256 253 252 253 253 253 251 247 245 242 239 236 232 232 224 221 214 212 203 203 194 200 208 186 108 62 153 158 125 132 115 104 89 81 95 83 109 92 87 99 118 132 139 146
264 258 255 252 250 251 252 251 248 245 241 240 237 234 233 224 218 209 206 197 198 197 201 202 194 191 117 159 149 142 140 130 187 86 64 69 98 112 111 101 97 110 122 122 126
263 262 256 253 250 248 251 250 248 246 243 238 237 238 239 219 214 205 202 198 193 195 202 204 201 195 140 148 163 195 143 140 194 191 71 80 92 70 117 125 117 110 116 123 121
264 261 259 254 250 248 247 249 249 247 244 239 236 236 231 217 209 203 199 200 193 195 200 206 201 204 185 190 187 169 143 169 168 188 184 80 93 65 86 128 141 141 133 131 135
261 259 258 256 251 246 247 246 250 253 244 237 232 219 226 213 205 202 198 198 193 196 199 205 202 205 199 202 166 186 196 173 250 223 194 204 200 214 91 108 136 153 157 158 153
259 255 254 255 251 246 241 242 244 246 256 240 235 224 221 210 204 201 198 195 195 196 193 203 209 204 203 205 209 201 198 200 263 223 214 249 227 218 216 187 166 158 153 167 172
257 255 249 249 250 244 240 239 242 246 258 252 238 229 215 214 203 202 200 194 197 197 200 206 208 207 204 211 211 215 217 212 295 276 247 245 241 207 205 210 197 180 174 157 164
257 251 248 244 243 241 235 234 236 244 263 256 238 230 213 209 216 198 199 195 199 204 206 211 212 212 208 215 213 226 233 253 257 268 292 251 117 198 200 203 198 187 173 165 166
260 249 244 239 236 233 230 224 225 222 256 212 210 211 210 204 205 201 194 192 203 197 201 207 209 208 210 217 219 228 241 244 253 265 275 229 260 144 189 209 213 188 177 176 178
256 249 238 236 229 226 218 209 202 200 230 221 203 201 195 196 201 209 192 194 200 200 206 212 213 213 219 217 213 221 238 242 252 258 235 191 231 158 188 214 215 210 190 181 175
251 243 233 228 221 217 206 191 187 221 213 213 197 192 190 190 194 192 190 191 190 189 200 205 212 211 211 212 209 212 218 219 228 208 240 169 210 161 184 211 193 205 204 195 193
248 236 229 220 216 208 199 185 215 221 204 200 191 190 192 191 196 192 193 198 200 200 198 199 204 205 215 213 211 214 211 216 207 213 170 152 215 222 220 224 230 202 202 205 203
250 235 221 214 209 202 197 200 213 206 205 198 183 188 192 194 194 194 200 204 203 198 205 204 212 213 210 206 205 209 218 217 256 259 240 184 217 236 248 249 257 220 198 199 207
253 238 221 211 206 201 203 211 210 207 203 204 198 196 195 195 195 198 198 207 206 205 196 202 204 201 202 198 201 204 207 211 225 227 230 174 215 209 185 218 297 204 205 196 201
256 245 225 213 207 203 211 212 207 211 200 199 208 203 206 200 201 200 202 203 203 206 201 207 203 198 198 199 197 198 200 216 226 229 220 218 206 213 214 227 256 184 205 193 196
258 238 233 210 207 212 213 210 215 216 214 206 201 213 206 204 205 205 203 204 199 202 201 198 204 194 202 211 207 213 208 208 218 200 240 281 229 198 215 221 220 200 191 187 198
270 250 229 206 207 213 214 213 212 206 211 207 203 200 211 204 205 208 207 202 200 200 201 198 209 201 195 203 211 209 213 216 220 230 222 228 237 213 214 219 219 207 196 198 198
282 243 258 221 218 202 213 219 214 208 211 209 202 204 193 204 204 202 206 202 204 196 197 198 205 209 205 210 209 208 211 214 218 219 230 228 247 231 221 213 216 214 204 206 207
275 246 222 191 223 214 215 207 212 213 213 209 211 203 205 205 206 208 202 204 203 203 195 197 210 211 219 216 212 212 211 214 218 226 229 241 233 238 231 224 234 223 223 227 219
244 268 272 252 245 236 223 213 209 206 208 216 212 207 196 194 200 200 200 199 195 199 196 198 213 210 215 206 204 211 218 220 225 228 236 236 240 236 233 234 234 226 232 235 232
295 291 269 250 226 208 217 207 200 213 206 196 211 204 208 201 209 181 174 188 189 188 193 200 203 203 217 215 221 228 211 212 219 223 226 229 229 233 235 241 240 232 238 235 237